Location: Creston
(40.9870°N, 81.8938°W)
Time: 17:56:31
(UTC+00:00)

OAO 2 Rocket - Pass Details

Date: 29 October 2020
Orbit: 676 x 746 km, 35.0° (Epoch: 27 November)

Event Time Altitude Azimuth Distance (km) Brightness Sun altitude
Rises 23:36:50 0° 255° (WSW) 3,068 8.5 -13.8°
Reaches altitude 10° 23:39:21 10° 248° (WSW) 2,140 7.1 -14.3°
Maximum altitude 23:44:03 42° 178° (S) 971 4.1 -15.2°
Enters shadow 23:46:57 21° 118° (ESE) 1,521 4.6 -15.7°
